| time (UTC) | temp F | wind direction | speed MPH | gust MPH | rain 1hr in | rain 24hr in | rain mn in | humidity % | barometer mb |
| 20260901161303 | 65 | 43 | 1.0 | 3.0 | 0.00 | 0.04 | 0.04 | 87 | 1005.5 |
| 20260901160803 | 65 | 19 | 1.0 | 3.0 | 0.00 | 0.04 | 0.04 | 86 | 1005.5 |
| 20260901160302 | 65 | 4 | 1.0 | 3.0 | 0.00 | 0.04 | 0.04 | 86 | 1005.5 |
| 20260901155306 | 66 | 39 | 0.0 | 2.0 | 0.00 | 0.04 | 0.04 | 85 | 1005.3 |
| 20260901154803 | 66 | 1 | 0.0 | 2.0 | 0.00 | 0.04 | 0.04 | 84 | 1005.3 |
| 20260901153803 | 67 | 36 | 1.0 | 3.0 | 0.00 | 0.04 | 0.04 | 83 | 1005.4 |
| 20260901152803 | 67 | 17 | 2.0 | 3.0 | 0.00 | 0.04 | 0.04 | 82 | 1005.4 |
| 20260901151803 | 68 | 1 | 2.0 | 5.0 | 0.00 | 0.04 | 0.04 | 83 | 1005.4 |
| 20260901151303 | 68 | 19 | 2.0 | 3.0 | 0.00 | 0.04 | 0.04 | 82 | 1005.4 |
| 20260901150803 | 68 | 358 | 1.0 | 3.0 | 0.00 | 0.04 | 0.04 | 82 | 1005.3 |
| 20260901145803 | 68 | 342 | 2.0 | 5.0 | 0.00 | 0.04 | 0.04 | 84 | 1005.3 |
| 20260901145306 | 67 | 3 | 1.0 | 3.0 | 0.00 | 0.04 | 0.04 | 84 | 1005.3 |
| 20260901144804 | 67 | 359 | 1.0 | 3.0 | 0.01 | 0.04 | 0.04 | 85 | 1005.3 |
| 20260901144303 | 67 | 14 | 0.0 | 3.0 | 0.01 | 0.04 | 0.04 | 84 | 1005.3 |
| 20260901142804 | 66 | 358 | 1.0 | 3.0 | 0.02 | 0.04 | 0.04 | 88 | 1005.3 |
| 20260901142305 | 65 | 358 | 0.0 | 2.0 | 0.02 | 0.04 | 0.04 | 88 | 1005.3 |
| 20260901141303 | 65 | 313 | 0.0 | 1.0 | 0.03 | 0.04 | 0.04 | 88 | 1005.3 |
| 20260901140803 | 65 | 313 | 0.0 | 0.0 | 0.03 | 0.04 | 0.04 | 87 | 1005.5 |
| 20260901140305 | 66 | 313 | 0.0 | 1.0 | 0.04 | 0.04 | 0.04 | 86 | 1005.5 |
| 20260901135803 | 66 | 313 | 0.0 | 2.0 | 0.04 | 0.04 | 0.04 | 86 | 1005.5 |
| 20260901134804 | 67 | 313 | 0.0 | 1.0 | 0.03 | 0.03 | 0.03 | 84 | 1005.7 |
| 20260901134303 | 67 | 313 | 1.0 | 2.0 | 0.03 | 0.03 | 0.03 | 83 | 1005.7 |
| 20260901133803 | 68 | 313 | 0.0 | 2.0 | 0.02 | 0.02 | 0.02 | 82 | 1005.7 |
| 20260901133303 | 68 | 323 | 0.0 | 2.0 | 0.02 | 0.02 | 0.02 | 82 | 1005.7 |
| 20260901132307 | 69 | 322 | 1.0 | 2.0 | 0.02 | 0.02 | 0.02 | 80 | 1005.6 |
| 20260901131803 | 69 | 342 | 0.0 | 2.0 | 0.01 | 0.01 | 0.01 | 80 | 1005.6 |
| 20260901131303 | 69 | 6 | 0.0 | 3.0 | 0.01 | 0.01 | 0.01 | 80 | 1005.6 |
| 20260901130803 | 70 | 1 | 1.0 | 2.0 | 0.01 | 0.01 | 0.01 | 80 | 1005.6 |
| 20260901130303 | 69 | 312 | 1.0 | 3.0 | 0.00 | 0.00 | 0.00 | 76 | 1005.6 |
| 20260901125803 | 69 | 277 | 1.0 | 3.0 | 0.00 | 0.00 | 0.00 | 74 | 1005.4 |
| 20260901125308 | 70 | 166 | 1.0 | 3.0 | 0.00 | 0.00 | 0.00 | 74 | 1005.4 |
| 20260901124803 | 70 | 177 | 1.0 | 2.0 | 0.00 | 0.00 | 0.00 | 74 | 1005.4 |
| 20260901124303 | 70 | 201 | 0.0 | 2.0 | 0.00 | 0.00 | 0.00 | 74 | 1005.4 |
| 20260901123303 | 71 | 194 | 0.0 | 3.0 | 0.00 | 0.00 | 0.00 | 74 | 1005.4 |
| 20260901122306 | 71 | 289 | 0.0 | 3.0 | 0.00 | 0.00 | 0.00 | 74 | 1005.4 |
| 20260901121803 | 71 | 33 | 2.0 | 5.0 | 0.00 | 0.00 | 0.00 | 75 | 1005.4 |
| 20260901120803 | 70 | 323 | 0.0 | 2.0 | 0.00 | 0.00 | 0.00 | 78 | 1005.4 |
| 20260901120303 | 69 | 188 | 2.0 | 5.0 | 0.00 | 0.00 | 0.00 | 78 | 1005.4 |
| 20260901115804 | 69 | 23 | 2.0 | 7.0 | 0.00 | 0.00 | 0.00 | 78 | 1005.4 |
| 20260901115306 | 69 | 60 | 2.0 | 3.0 | 0.00 | 0.00 | 0.00 | 79 | 1005.3 |
| 20260901114803 | 68 | 204 | 2.0 | 3.0 | 0.00 | 0.00 | 0.00 | 81 | 1005.3 |
| 20260901114303 | 67 | 268 | 1.0 | 3.0 | 0.00 | 0.00 | 0.00 | 82 | 1005.3 |
| 20260901113804 | 67 | 60 | 2.0 | 5.0 | 0.00 | 0.00 | 0.00 | 83 | 1005.3 |
| 20260901113304 | 67 | 307 | 1.0 | 5.0 | 0.00 | 0.00 | 0.00 | 84 | 1005.3 |
| 20260901112306 | 66 | 5 | 0.0 | 3.0 | 0.00 | 0.00 | 0.00 | 84 | 1005.3 |
| 20260901111803 | 66 | 37 | 0.0 | 3.0 | 0.00 | 0.00 | 0.00 | 84 | 1005.3 |
| 20260901110803 | 66 | 5 | 0.0 | 1.0 | 0.00 | 0.00 | 0.00 | 86 | 1005.3 |
| 20260901110303 | 66 | 5 | 0.0 | 0.0 | 0.00 | 0.00 | 0.00 | 85 | 1005.3 |
| 20260901105804 | 66 | 5 | 0.0 | 0.0 | 0.00 | 0.00 | 0.00 | 85 | 1004.9 |
| 20260901105305 | 66 | 5 | 0.0 | 0.0 | 0.00 | 0.00 | 0.00 | 84 | 1004.9 |
| 20260901104303 | 66 | 5 | 0.0 | 0.0 | 0.00 | 0.00 | 0.00 | 83 | 1004.9 |
| 20260901103803 | 66 | 5 | 0.0 | 0.0 | 0.00 | 0.00 | 0.00 | 84 | 1004.9 |
| 20260901103303 | 66 | 5 | 0.0 | 0.0 | 0.00 | 0.00 | 0.00 | 83 | 1004.9 |
| 20260901102803 | 66 | 5 | 0.0 | 0.0 | 0.00 | 0.00 | 0.00 | 83 | 1004.9 |
| 20260901102306 | 66 | 5 | 0.0 | 0.0 | 0.00 | 0.00 | 0.00 | 83 | 1004.9 |
| 20260901101803 | 66 | 5 | 0.0 | 0.0 | 0.00 | 0.00 | 0.00 | 83 | 1004.9 |
| 20260901101303 | 66 | 5 | 0.0 | 0.0 | 0.00 | 0.00 | 0.00 | 83 | 1004.9 |
| 20260901100803 | 66 | 5 | 0.0 | 0.0 | 0.00 | 0.00 | 0.00 | 83 | 1004.9 |
| 20260901100303 | 66 | 5 | 0.0 | 2.0 | 0.00 | 0.00 | 0.00 | 83 | 1004.9 |
| 20260901095803 | 66 | 12 | 0.0 | 3.0 | 0.00 | 0.00 | 0.00 | 83 | 1004.9 |
| 20260901095306 | 65 | 358 | 1.0 | 3.0 | 0.00 | 0.00 | 0.00 | 84 | 1004.9 |
| 20260901094803 | 65 | 36 | 1.0 | 2.0 | 0.00 | 0.00 | 0.00 | 84 | 1004.9 |
| 20260901094303 | 65 | 5 | 0.0 | 1.0 | 0.00 | 0.00 | 0.00 | 85 | 1004.9 |
| 20260901093803 | 65 | 5 | 0.0 | 1.0 | 0.00 | 0.00 | 0.00 | 85 | 1004.9 |
| 20260901093303 | 65 | 5 | 0.0 | 2.0 | 0.00 | 0.00 | 0.00 | 85 | 1004.9 |
| 20260901092803 | 65 | 5 | 1.0 | 2.0 | 0.00 | 0.00 | 0.00 | 85 | 1004.9 |
| 20260901092305 | 65 | 5 | 0.0 | 2.0 | 0.00 | 0.00 | 0.00 | 85 | 1004.9 |
| 20260901091803 | 65 | 5 | 0.0 | 1.0 | 0.00 | 0.00 | 0.00 | 85 | 1004.9 |
| 20260901091304 | 65 | 5 | 1.0 | 2.0 | 0.00 | 0.00 | 0.00 | 85 | 1004.9 |
| 20260901090803 | 65 | 5 | 0.0 | 1.0 | 0.00 | 0.00 | 0.00 | 86 | 1004.9 |
| 20260901090303 | 65 | 5 | 1.0 | 2.0 | 0.00 | 0.00 | 0.00 | 86 | 1004.9 |
| 20260901085804 | 65 | 356 | 0.0 | 2.0 | 0.00 | 0.00 | 0.00 | 86 | 1004.9 |
| 20260901085306 | 64 | 7 | 1.0 | 3.0 | 0.00 | 0.00 | 0.00 | 87 | 1004.9 |
| 20260901084803 | 64 | 355 | 0.0 | 2.0 | 0.00 | 0.00 | 0.00 | 87 | 1004.9 |
| 20260901084304 | 64 | 39 | 0.0 | 0.0 | 0.00 | 0.00 | 0.00 | 86 | 1004.9 |
| 20260901083803 | 64 | 39 | 0.0 | 1.0 | 0.00 | 0.00 | 0.00 | 86 | 1004.9 |
| 20260901083303 | 64 | 39 | 0.0 | 2.0 | 0.00 | 0.00 | 0.00 | 87 | 1004.9 |
| 20260901082803 | 64 | 39 | 1.0 | 2.0 | 0.00 | 0.00 | 0.00 | 87 | 1004.9 |
| 20260901082306 | 64 | 350 | 1.0 | 3.0 | 0.00 | 0.00 | 0.00 | 88 | 1004.9 |
| 20260901081803 | 64 | 0 | 2.0 | 3.0 | 0.00 | 0.00 | 0.00 | 88 | 1004.9 |
| 20260901081303 | 64 | 321 | 0.0 | 1.0 | 0.00 | 0.00 | 0.00 | 88 | 1004.9 |
| 20260901080803 | 64 | 321 | 1.0 | 2.0 | 0.00 | 0.00 | 0.00 | 88 | 1004.2 |
| 20260901080303 | 64 | 321 | 0.0 | 2.0 | 0.00 | 0.00 | 0.00 | 89 | 1004.2 |
| 20260901075804 | 63 | 321 | 0.0 | 2.0 | 0.00 | 0.00 | 0.00 | 89 | 1004.2 |
| 20260901075307 | 63 | 321 | 0.0 | 1.0 | 0.00 | 0.00 | 0.00 | 89 | 1004.2 |
| 20260901074803 | 63 | 321 | 0.0 | 1.0 | 0.00 | 0.00 | 0.00 | 89 | 1004.2 |
| 20260901074303 | 63 | 321 | 0.0 | 0.0 | 0.00 | 0.00 | 0.00 | 90 | 1004.2 |
| 20260901073804 | 63 | 321 | 0.0 | 3.0 | 0.00 | 0.00 | 0.00 | 91 | 1004.2 |
| 20260901073303 | 63 | 171 | 1.0 | 2.0 | 0.00 | 0.00 | 0.00 | 91 | 1004.2 |
| 20260901072804 | 63 | 171 | 0.0 | 1.0 | 0.00 | 0.00 | 0.00 | 91 | 1004.2 |
| 20260901072308 | 63 | 171 | 0.0 | 1.0 | 0.00 | 0.00 | 0.00 | 91 | 1004.2 |
| 20260901071804 | 63 | 171 | 1.0 | 2.0 | 0.00 | 0.00 | 0.00 | 91 | 1004.2 |
| 20260901071303 | 62 | 171 | 1.0 | 2.0 | 0.00 | 0.00 | 0.00 | 92 | 1004.2 |
| 20260901070803 | 62 | 171 | 1.0 | 2.0 | 0.00 | 0.00 | 0.00 | 93 | 1004.2 |
| 20260901070304 | 62 | 171 | 1.0 | 2.0 | 0.00 | 0.00 | 0.00 | 93 | 1004.2 |
| 20260901065803 | 62 | 298 | 0.0 | 0.0 | 0.00 | 0.00 | 0.00 | 94 | 1004.2 |
| 20260901065305 | 62 | 298 | 0.0 | 0.0 | 0.00 | 0.00 | 0.00 | 94 | 1004.2 |
| 20260901064803 | 62 | 298 | 0.0 | 0.0 | 0.00 | 0.00 | 0.00 | 94 | 1004.2 |
| 20260901064303 | 62 | 298 | 0.0 | 0.0 | 0.00 | 0.00 | 0.00 | 94 | 1004.2 |
| 20260901063805 | 62 | 298 | 0.0 | 0.0 | 0.00 | 0.00 | 0.00 | 95 | 1004.2 |
| 20260901063303 | 61 | 298 | 0.0 | 0.0 | 0.00 | 0.00 | 0.00 | 94 | 1004.2 |
| 20260901062803 | 61 | 298 | 0.0 | 0.0 | 0.00 | 0.00 | 0.00 | 95 | 1004.2 |
| 20260901062309 | 61 | 298 | 0.0 | 0.0 | 0.00 | 0.00 | 0.00 | 95 | 1004.2 |
| 20260901061804 | 61 | 298 | 0.0 | 1.0 | 0.00 | 0.00 | 0.00 | 95 | 1004.2 |
| 20260901061303 | 61 | 298 | 0.0 | 1.0 | 0.00 | 0.00 | 0.00 | 95 | 1004.2 |
| 20260901060806 | 61 | 298 | 0.0 | 1.0 | 0.00 | 0.00 | 0.00 | 95 | 1004.2 |
| 20260901060303 | 61 | 298 | 1.0 | 2.0 | 0.00 | 0.00 | 0.00 | 95 | 1004.2 |
| 20260901055306 | 60 | 298 | 1.0 | 2.0 | 0.00 | 0.00 | 0.00 | 95 | 1004.2 |
| 20260901054803 | 60 | 298 | 1.0 | 2.0 | 0.00 | 0.00 | 0.00 | 95 | 1004.2 |
| 20260901054304 | 60 | 298 | 2.0 | 3.0 | 0.00 | 0.00 | 0.00 | 95 | 1004.3 |
| 20260901053803 | 60 | 302 | 1.0 | 3.0 | 0.00 | 0.00 | 0.00 | 95 | 1004.3 |
| 20260901053304 | 60 | 305 | 1.0 | 3.0 | 0.00 | 0.00 | 0.00 | 95 | 1004.3 |
| 20260901052803 | 59 | 264 | 0.0 | 1.0 | 0.00 | 0.00 | 0.00 | 95 | 1004.3 |
| 20260901052306 | 59 | 265 | 0.0 | 2.0 | 0.00 | 0.00 | 0.00 | 95 | 1004.3 |
| 20260901051304 | 59 | 155 | 0.0 | 1.0 | 0.00 | 0.00 | 0.00 | 94 | 1004.3 |
| 20260901050804 | 59 | 155 | 0.0 | 1.0 | 0.00 | 0.00 | 0.00 | 94 | 1004.3 |
| 20260901045306 | 58 | 155 | 0.0 | 0.0 | 0.00 | 0.00 | 0.00 | 94 | 1004.2 |
| 20260901044803 | 58 | 155 | 0.0 | 0.0 | 0.00 | 0.00 | 0.00 | 94 | 1004.2 |
| 20260901044304 | 58 | 155 | 0.0 | 0.0 | 0.00 | 0.00 | 0.00 | 94 | 1004.2 |
| 20260901043804 | 58 | 155 | 0.0 | 1.0 | 0.00 | 0.00 | 0.00 | 94 | 1004.2 |
| 20260901043304 | 58 | 155 | 0.0 | 1.0 | 0.00 | 0.00 | 0.00 | 94 | 1004.2 |
| 20260901042804 | 57 | 155 | 0.0 | 0.0 | 0.00 | 0.00 | 0.00 | 93 | 1004.2 |
| 20260901042306 | 57 | 155 | 0.0 | 1.0 | 0.00 | 0.00 | 0.00 | 93 | 1004.2 |
| 20260901041303 | 57 | 155 | 1.0 | 1.0 | 0.00 | 0.00 | 0.00 | 93 | 1004.2 |
| 20260901040803 | 57 | 155 | 1.0 | 2.0 | 0.00 | 0.00 | 0.00 | 92 | 1004.2 |
| 20260901040303 | 57 | 155 | 1.0 | 2.0 | 0.00 | 0.00 | 0.00 | 92 | 1004.2 |
| 20260901035804 | 58 | 155 | 1.0 | 2.0 | 0.00 | 0.00 | 0.00 | 92 | 1004.2 |
| 20260901035305 | 58 | 155 | 1.0 | 2.0 | 0.00 | 0.00 | 0.00 | 92 | 1004.2 |
| 20260901034804 | 58 | 155 | 1.0 | 1.0 | 0.00 | 0.00 | 0.00 | 93 | 1004.2 |
| 20260901034303 | 58 | 155 | 0.0 | 2.0 | 0.00 | 0.00 | 0.00 | 93 | 1004.2 |
| 20260901033303 | 58 | 155 | 0.0 | 1.0 | 0.00 | 0.00 | 0.00 | 93 | 1004.2 |
| 20260901032804 | 58 | 155 | 0.0 | 0.0 | 0.00 | 0.00 | 0.00 | 93 | 1004.2 |
| 20260901032306 | 58 | 155 | 0.0 | 0.0 | 0.00 | 0.00 | 0.00 | 93 | 1004.2 |
| 20260901031803 | 58 | 155 | 0.0 | 0.0 | 0.00 | 0.00 | 0.00 | 92 | 1004.2 |
| 20260901031303 | 58 | 155 | 0.0 | 0.0 | 0.00 | 0.00 | 0.00 | 92 | 1004.2 |
| 20260901030303 | 58 | 155 | 0.0 | 0.0 | 0.00 | 0.00 | 0.00 | 92 | 1004.1 |
| 20260901025804 | 58 | 155 | 0.0 | 1.0 | 0.00 | 0.00 | 0.00 | 92 | 1004.1 |
| 20260901025306 | 58 | 155 | 1.0 | 1.0 | 0.00 | 0.00 | 0.00 | 92 | 1004.0 |
| 20260901024803 | 58 | 155 | 1.0 | 3.0 | 0.00 | 0.00 | 0.00 | 92 | 1004.0 |
| 20260901023803 | 58 | 155 | 0.0 | 1.0 | 0.00 | 0.00 | 0.00 | 92 | 1004.0 |
| 20260901022804 | 59 | 155 | 1.0 | 1.0 | 0.00 | 0.00 | 0.00 | 92 | 1004.0 |
| 20260901022306 | 59 | 155 | 0.0 | 1.0 | 0.00 | 0.00 | 0.00 | 92 | 1004.0 |
| 20260901021804 | 59 | 155 | 0.0 | 2.0 | 0.00 | 0.00 | 0.00 | 92 | 1004.0 |
| 20260901021304 | 59 | 155 | 1.0 | 2.0 | 0.00 | 0.00 | 0.00 | 92 | 1004.0 |
| 20260901020803 | 59 | 155 | 0.0 | 0.0 | 0.00 | 0.00 | 0.00 | 92 | 1004.3 |
| 20260901020303 | 59 | 155 | 0.0 | 0.0 | 0.00 | 0.00 | 0.00 | 93 | 1004.3 |
| 20260901015804 | 59 | 155 | 0.0 | 0.0 | 0.00 | 0.00 | 0.00 | 93 | 1004.3 |
| 20260901015305 | 59 | 155 | 0.0 | 0.0 | 0.00 | 0.00 | 0.00 | 93 | 1004.3 |
| 20260901014804 | 59 | 155 | 0.0 | 0.0 | 0.00 | 0.00 | 0.00 | 93 | 1004.3 |
| 20260901014303 | 59 | 155 | 0.0 | 0.0 | 0.00 | 0.00 | 0.00 | 92 | 1004.3 |
| 20260901013804 | 59 | 155 | 0.0 | 0.0 | 0.00 | 0.00 | 0.00 | 92 | 1004.3 |
| 20260901013304 | 59 | 155 | 0.0 | 0.0 | 0.00 | 0.00 | 0.00 | 92 | 1004.3 |
| 20260901012804 | 59 | 155 | 0.0 | 0.0 | 0.00 | 0.00 | 0.00 | 92 | 1004.3 |
| 20260901012306 | 59 | 155 | 0.0 | 0.0 | 0.00 | 0.00 | 0.00 | 92 | 1004.3 |
| 20260901011304 | 59 | 155 | 0.0 | 0.0 | 0.00 | 0.00 | 0.00 | 92 | 1004.3 |
| 20260901010303 | 59 | 155 | 1.0 | 2.0 | 0.00 | 0.00 | 0.00 | 92 | 1004.3 |
| 20260901005804 | 59 | 155 | 0.0 | 2.0 | 0.00 | 0.00 | 0.00 | 91 | 1004.3 |
| 20260901005306 | 59 | 155 | 0.0 | 1.0 | 0.00 | 0.00 | 0.00 | 91 | 1004.3 |
| 20260901004803 | 59 | 155 | 1.0 | 2.0 | 0.00 | 0.00 | 0.00 | 91 | 1004.3 |
| 20260901004303 | 59 | 155 | 1.0 | 1.0 | 0.00 | 0.00 | 0.00 | 91 | 1004.3 |
| 20260901002804 | 59 | 155 | 1.0 | 2.0 | 0.00 | 0.00 | 0.00 | 91 | 1004.4 |
| 20260901002305 | 59 | 155 | 1.0 | 2.0 | 0.00 | 0.00 | 0.00 | 91 | 1004.4 |
| 20260901001803 | 60 | 155 | 1.0 | 2.0 | 0.00 | 0.00 | 0.00 | 90 | 1004.4 |
| 20260901001303 | 60 | 155 | 1.0 | 2.0 | 0.00 | 0.00 | 0.00 | 90 | 1004.4 |
| 20260901000804 | 60 | 155 | 1.0 | 1.0 | 0.00 | 0.00 | 0.00 | 90 | 1004.4 |
| 20260901000303 | 60 | 155 | 1.0 | 1.0 | 0.00 | 0.00 | 0.00 | 91 | 1004.4 |
| 20260831235804 | 60 | 155 | 0.0 | 1.0 | 0.00 | 0.00 | 0.00 | 91 | 1004.4 |
| 20260831234803 | 60 | 155 | 0.0 | 1.0 | 0.00 | 0.00 | 0.00 | 91 | 1004.7 |
| 20260831234303 | 60 | 155 | 0.0 | 2.0 | 0.00 | 0.00 | 0.00 | 91 | 1004.7 |
| 20260831233804 | 60 | 166 | 0.0 | 1.0 | 0.00 | 0.00 | 0.00 | 91 | 1004.7 |
| 20260831233304 | 60 | 166 | 0.0 | 1.0 | 0.00 | 0.00 | 0.00 | 91 | 1004.7 |
| 20260831232803 | 60 | 166 | 0.0 | 1.0 | 0.00 | 0.00 | 0.00 | 91 | 1004.7 |
| 20260831232306 | 60 | 166 | 0.0 | 1.0 | 0.00 | 0.00 | 0.00 | 91 | 1004.7 |
| 20260831231803 | 60 | 165 | 1.0 | 3.0 | 0.00 | 0.00 | 0.00 | 91 | 1004.7 |
| 20260831231304 | 60 | 168 | 1.0 | 3.0 | 0.00 | 0.00 | 0.00 | 91 | 1004.7 |
| 20260831230803 | 60 | 153 | 1.0 | 1.0 | 0.00 | 0.00 | 0.00 | 91 | 1004.7 |
| 20260831230304 | 60 | 153 | 0.0 | 2.0 | 0.00 | 0.00 | 0.00 | 91 | 1004.7 |
| 20260831225804 | 60 | 159 | 1.0 | 3.0 | 0.00 | 0.00 | 0.00 | 91 | 1004.7 |
| 20260831225306 | 60 | 159 | 1.0 | 3.0 | 0.00 | 0.00 | 0.00 | 91 | 1004.7 |
| 20260831224802 | 60 | 159 | 0.0 | 3.0 | 0.00 | 0.00 | 0.00 | 91 | 1004.7 |
| 20260831224302 | 60 | 158 | 0.0 | 3.0 | 0.00 | 0.00 | 0.00 | 91 | 1004.7 |
| 20260831223802 | 61 | 215 | 0.0 | 2.0 | 0.00 | 0.00 | 0.00 | 91 | 1004.7 |
| 20260831223302 | 61 | 165 | 0.0 | 3.0 | 0.00 | 0.00 | 0.00 | 92 | 1004.7 |
| 20260831222305 | 61 | 172 | 1.0 | 5.0 | 0.00 | 0.00 | 0.00 | 92 | 1004.7 |
| 20260831221802 | 61 | 167 | 2.0 | 5.0 | 0.00 | 0.00 | 0.00 | 92 | 1004.7 |
| 20260831221302 | 60 | 173 | 1.0 | 3.0 | 0.00 | 0.00 | 0.00 | 92 | 1004.7 |
| 20260831215802 | 60 | 149 | 2.0 | 7.0 | 0.00 | 0.00 | 0.00 | 92 | 1004.7 |
| 20260831215306 | 60 | 140 | 2.0 | 5.0 | 0.00 | 0.00 | 0.00 | 93 | 1004.7 |
| 20260831214802 | 60 | 157 | 0.0 | 3.0 | 0.00 | 0.00 | 0.00 | 93 | 1004.7 |
| 20260831214302 | 60 | 145 | 1.0 | 6.0 | 0.00 | 0.00 | 0.00 | 93 | 1004.7 |
| 20260831213302 | 60 | 155 | 2.0 | 5.0 | 0.00 | 0.00 | 0.00 | 93 | 1004.6 |
| 20260831212802 | 59 | 160 | 2.0 | 9.0 | 0.00 | 0.00 | 0.00 | 92 | 1004.6 |
| 20260831212306 | 59 | 154 | 1.0 | 3.0 | 0.00 | 0.00 | 0.00 | 92 | 1004.6 |
| 20260831211802 | 59 | 161 | 2.0 | 5.0 | 0.00 | 0.00 | 0.00 | 92 | 1004.6 |
| 20260831211302 | 59 | 163 | 2.0 | 5.0 | 0.00 | 0.00 | 0.00 | 91 | 1004.6 |
| 20260831210302 | 59 | 164 | 1.0 | 2.0 | 0.00 | 0.00 | 0.00 | 90 | 1004.4 |
| 20260831205803 | 59 | 164 | 1.0 | 2.0 | 0.00 | 0.00 | 0.00 | 90 | 1004.4 |
| 20260831205305 | 59 | 159 | 0.0 | 0.0 | 0.00 | 0.00 | 0.00 | 89 | 1004.4 |
| 20260831204802 | 59 | 159 | 0.0 | 0.0 | 0.00 | 0.00 | 0.00 | 89 | 1004.5 |
| 20260831204302 | 59 | 159 | 0.0 | 0.0 | 0.00 | 0.00 | 0.00 | 89 | 1004.5 |
| 20260831203302 | 59 | 159 | 0.0 | 0.0 | 0.00 | 0.00 | 0.00 | 89 | 1004.5 |
| 20260831202802 | 59 | 159 | 0.0 | 0.0 | 0.00 | 0.00 | 0.00 | 89 | 1004.5 |
| 20260831202306 | 60 | 159 | 0.0 | 0.0 | 0.00 | 0.00 | 0.00 | 88 | 1004.5 |
| 20260831201801 | 60 | 159 | 0.0 | 0.0 | 0.00 | 0.00 | 0.00 | 88 | 1004.5 |
| 20260831201302 | 60 | 159 | 0.0 | 0.0 | 0.00 | 0.00 | 0.00 | 88 | 1004.5 |
| 20260831200802 | 60 | 159 | 0.0 | 0.0 | 0.00 | 0.00 | 0.00 | 88 | 1004.5 |
| 20260831200302 | 60 | 159 | 0.0 | 0.0 | 0.00 | 0.00 | 0.00 | 88 | 1004.5 |
| 20260831195802 | 60 | 159 | 0.0 | 0.0 | 0.00 | 0.00 | 0.00 | 88 | 1004.5 |
| 20260831195306 | 60 | 159 | 0.0 | 0.0 | 0.00 | 0.00 | 0.00 | 88 | 1004.5 |
| 20260831194802 | 60 | 159 | 0.0 | 0.0 | 0.00 | 0.00 | 0.00 | 88 | 1004.5 |
| 20260831194302 | 60 | 159 | 0.0 | 1.0 | 0.00 | 0.00 | 0.00 | 88 | 1004.5 |
| 20260831193802 | 60 | 159 | 1.0 | 2.0 | 0.00 | 0.00 | 0.00 | 87 | 1004.5 |
| 20260831193302 | 60 | 159 | 0.0 | 0.0 | 0.00 | 0.00 | 0.00 | 87 | 1004.5 |
| 20260831192803 | 60 | 159 | 0.0 | 0.0 | 0.00 | 0.00 | 0.00 | 87 | 1004.5 |
| 20260831192305 | 60 | 159 | 0.0 | 0.0 | 0.00 | 0.00 | 0.00 | 86 | 1004.3 |
| 20260831191802 | 61 | 159 | 0.0 | 0.0 | 0.00 | 0.00 | 0.00 | 86 | 1004.3 |
| 20260831191302 | 61 | 159 | 0.0 | 1.0 | 0.00 | 0.00 | 0.00 | 86 | 1004.3 |
| 20260831190803 | 61 | 159 | 0.0 | 1.0 | 0.00 | 0.00 | 0.00 | 86 | 1004.3 |
| 20260831190302 | 61 | 159 | 0.0 | 1.0 | 0.00 | 0.00 | 0.00 | 85 | 1004.4 |
| 20260831185802 | 61 | 159 | 0.0 | 2.0 | 0.00 | 0.00 | 0.00 | 85 | 1004.4 |
| 20260831185306 | 61 | 161 | 1.0 | 2.0 | 0.00 | 0.00 | 0.00 | 85 | 1004.4 |
| 20260831184802 | 61 | 163 | 0.0 | 2.0 | 0.00 | 0.00 | 0.00 | 85 | 1004.4 |
| 20260831184303 | 61 | 163 | 0.0 | 1.0 | 0.00 | 0.00 | 0.00 | 85 | 1004.4 |
| 20260831183302 | 61 | 155 | 0.0 | 1.0 | 0.00 | 0.00 | 0.00 | 84 | 1004.4 |
| 20260831182305 | 62 | 148 | 1.0 | 2.0 | 0.00 | 0.00 | 0.00 | 84 | 1004.3 |
| 20260831181802 | 62 | 184 | 1.0 | 3.0 | 0.00 | 0.00 | 0.00 | 84 | 1004.3 |
| 20260831181302 | 62 | 160 | 1.0 | 3.0 | 0.00 | 0.00 | 0.00 | 83 | 1004.3 |
| 20260831180802 | 62 | 157 | 1.0 | 5.0 | 0.00 | 0.00 | 0.00 | 83 | 1004.3 |
| 20260831180302 | 62 | 167 | 1.0 | 6.0 | 0.00 | 0.00 | 0.00 | 83 | 1004.3 |
| 20260831175802 | 62 | 160 | 2.0 | 6.0 | 0.00 | 0.00 | 0.00 | 82 | 1004.3 |
| 20260831175305 | 63 | 155 | 1.0 | 3.0 | 0.00 | 0.00 | 0.00 | 82 | 1004.3 |
| 20260831174802 | 63 | 155 | 1.0 | 3.0 | 0.00 | 0.00 | 0.00 | 81 | 1004.3 |
| 20260831174302 | 63 | 158 | 1.0 | 3.0 | 0.00 | 0.00 | 0.00 | 81 | 1004.3 |
| 20260831173802 | 63 | 191 | 1.0 | 3.0 | 0.00 | 0.00 | 0.00 | 80 | 1004.3 |
| 20260831173302 | 63 | 170 | 1.0 | 3.0 | 0.00 | 0.00 | 0.00 | 80 | 1004.4 |
| 20260831172802 | 64 | 165 | 1.0 | 5.0 | 0.00 | 0.00 | 0.00 | 79 | 1004.4 |
| 20260831172306 | 64 | 153 | 1.0 | 3.0 | 0.00 | 0.00 | 0.00 | 78 | 1004.4 |
| 20260831171302 | 64 | 168 | 1.0 | 3.0 | 0.00 | 0.00 | 0.00 | 75 | 1004.4 |
| 20260831170802 | 64 | 169 | 0.0 | 1.0 | 0.00 | 0.00 | 0.00 | 75 | 1004.3 |
| 20260831170303 | 65 | 162 | 0.0 | 2.0 | 0.00 | 0.00 | 0.00 | 75 | 1004.3 |
| 20260831165305 | 65 | 160 | 1.0 | 3.0 | 0.00 | 0.00 | 0.00 | 74 | 1004.2 |
| 20260831164302 | 65 | 200 | 1.0 | 3.0 | 0.00 | 0.00 | 0.00 | 74 | 1004.2 |
| 20260831162802 | 65 | 304 | 0.0 | 3.0 | 0.00 | 0.00 | 0.00 | 74 | 1004.2 |
| 20260831162305 | 65 | 208 | 2.0 | 5.0 | 0.00 | 0.01 | 0.00 | 73 | 1004.2 |
| 20260831161802 | 65 | 189 | 2.0 | 3.0 | 0.00 | 0.01 | 0.00 | 74 | 1004.2 |